Orbital Elements at Epoch 2459200.5 (2020-Dec-17.0) TDB
Reference: JPL 25 (heliocentric ecliptic J2000)
Element | Value | Uncertainty (1-sigma) | Units |
e | .1634988123596755 | 3.1185e-08 | |
a | 2.641661724293196 | 1.3404e-08 | au |
q | 2.209753169715246 | 8.1385e-08 | au |
i | 4.795874352456737 | 3.6239e-06 | deg |
node | 100.8964515342328 | 5.9842e-05 | deg |
peri | 177.1418186745652 | 6.1881e-05 | deg |
M | 155.1827931470537 | 1.6531e-05 | deg |
tp | 2458524.486613379105 (2019-Feb-09.98661338) | 7.0565e-05 | TDB |
period | 1568.246158276748 4.29 | 1.1936e-05 3.268e-08 | d yr |
n | .2295557990689309 | 1.7472e-09 | deg/d |
Q | 3.073570278871145 | 1.5596e-08 | au |
|
| | Orbit Determination Parameters
Additional Information
|